Location: Street
(51.1247°N, 2.7429°W)
Time: 16:29:56
(UTC+00:00)

SR - Pass Details

Date: 02 December 2020
Orbit: 575 x 880 km, 66.7° (Epoch: 26 January)

Event Time Altitude Azimuth Distance (km) Brightness Sun altitude
Rises 18:45:19 0° 232° (SW) 2,836 ? -23.9°
Reaches altitude 10° 18:47:32 10° 237° (WSW) 1,966 ? -24.3°
Maximum altitude 18:51:52 52° 315° (NW) 799 ? -24.9°
Enters shadow 18:52:44 45° 353° (N) 886 ? -25.1°
Drops below altitude 10° 18:56:34 10° 32° (NNE) 2,140 - -25.7°
Sets 18:59:05 0° 37° (NE) 3,113 - -26.1°
